Time,TemperatureF,DewpointF,PressureIn,WindDirection,WindDirectionDegrees,WindSpeedMPH,WindSpeedGustMPH,Humidity,HourlyPrecipIn,Conditions,Clouds,dailyrainin,SoftwareType,DateUTC
2013-06-14 00:01:00,68.0,55.0,-100.00,North,5,6.0,8.0,63,0.00,,,-99.99,,2013-06-14 04:01:00,
2013-06-14 00:12:00,68.0,56.0,-100.00,North,5,7.0,9.0,66,0.00,,,-99.99,,2013-06-14 04:12:00,
2013-06-14 00:22:00,67.0,58.0,-100.00,North,5,7.0,12.0,70,0.00,,,-99.99,,2013-06-14 04:22:00,
2013-06-14 00:33:00,67.0,58.0,-100.00,North,5,7.0,10.0,71,0.00,,,-99.99,,2013-06-14 04:33:00,
2013-06-14 00:43:00,67.0,57.0,-100.00,North,5,7.0,11.0,70,0.00,,,-99.99,,2013-06-14 04:43:00,
2013-06-14 00:53:00,66.0,57.0,-100.00,North,5,6.0,11.0,72,0.00,,,-99.99,,2013-06-14 04:53:00,
2013-06-14 01:02:00,66.0,57.0,-100.00,North,5,6.0,11.0,72,0.00,,,-99.99,,2013-06-14 05:02:00,
2013-06-14 01:11:00,66.0,58.0,-100.00,North,5,6.0,9.0,73,0.00,,,-99.99,,2013-06-14 05:11:00,
2013-06-14 01:22:00,66.0,57.0,-100.00,North,5,4.0,7.0,74,0.00,,,-99.99,,2013-06-14 05:22:00,
2013-06-14 01:34:00,65.0,58.0,-100.00,North,5,4.0,7.0,76,0.00,,,-99.99,,2013-06-14 05:34:00,
2013-06-14 01:43:00,65.0,58.0,-100.00,North,5,4.0,6.0,77,0.00,,,-99.99,,2013-06-14 05:43:00,
2013-06-14 01:52:00,64.0,58.0,-100.00,North,5,4.0,6.0,78,0.00,,,-99.99,,2013-06-14 05:52:00,
2013-06-14 02:02:00,64.0,58.0,-100.00,North,5,4.0,6.0,78,0.00,,,-99.99,,2013-06-14 06:02:00,
2013-06-14 02:12:00,64.0,57.0,-100.00,North,5,2.0,6.0,79,0.00,,,-99.99,,2013-06-14 06:12:00,
2013-06-14 02:22:00,64.0,57.0,-100.00,North,5,2.0,5.0,79,0.00,,,-99.99,,2013-06-14 06:22:00,
2013-06-14 02:33:00,64.0,57.0,-100.00,North,5,4.0,6.0,79,0.00,,,-99.99,,2013-06-14 06:33:00,
2013-06-14 02:43:00,64.0,57.0,-100.00,North,5,4.0,7.0,79,0.00,,,-99.99,,2013-06-14 06:43:00,
2013-06-14 02:52:00,63.0,57.0,-100.00,North,5,3.0,6.0,80,0.00,,,-99.99,,2013-06-14 06:52:00,
2013-06-14 03:02:00,62.0,57.0,-100.00,North,5,3.0,5.0,82,0.00,,,-99.99,,2013-06-14 07:02:00,
2013-06-14 03:12:00,62.0,57.0,-100.00,North,5,3.0,6.0,83,0.00,,,-99.99,,2013-06-14 07:12:00,
2013-06-14 03:22:00,62.0,57.0,-100.00,North,5,3.0,5.0,84,0.00,,,-99.99,,2013-06-14 07:22:00,
2013-06-14 03:33:00,62.0,57.0,-100.00,North,5,4.0,6.0,84,0.00,,,-99.99,,2013-06-14 07:33:00,
2013-06-14 03:43:00,62.0,57.0,-100.00,North,5,4.0,6.0,85,0.00,,,-99.99,,2013-06-14 07:43:00,
2013-06-14 03:53:00,61.0,57.0,-100.00,North,5,3.0,5.0,84,0.00,,,-99.99,,2013-06-14 07:53:00,
2013-06-14 04:02:00,61.0,57.0,-100.00,North,5,4.0,6.0,86,0.00,,,-99.99,,2013-06-14 08:02:00,
2013-06-14 04:12:00,61.0,57.0,-100.00,North,5,4.0,4.0,86,0.00,,,-99.99,,2013-06-14 08:12:00,
2013-06-14 04:23:00,60.0,57.0,-100.00,North,5,3.0,5.0,87,0.00,,,-99.99,,2013-06-14 08:23:00,
2013-06-14 04:33:00,60.0,56.0,-100.00,North,5,4.0,4.0,88,0.00,,,-99.99,,2013-06-14 08:33:00,
2013-06-14 04:43:00,60.0,56.0,-100.00,North,5,2.0,4.0,88,0.00,,,-99.99,,2013-06-14 08:43:00,
2013-06-14 04:53:00,60.0,56.0,-100.00,North,5,4.0,5.0,89,0.00,,,-99.99,,2013-06-14 08:53:00,
2013-06-14 05:02:00,59.0,56.0,-100.00,North,5,3.0,4.0,89,0.00,,,-99.99,,2013-06-14 09:02:00,
2013-06-14 05:12:00,59.0,56.0,-100.00,North,5,4.0,5.0,89,0.00,,,-99.99,,2013-06-14 09:12:00,
2013-06-14 05:22:00,59.0,56.0,-100.00,North,5,4.0,5.0,89,0.00,,,-99.99,,2013-06-14 09:22:00,
2013-06-14 05:33:00,59.0,56.0,-100.00,North,5,4.0,6.0,90,0.00,,,-99.99,,2013-06-14 09:33:00,
2013-06-14 05:43:00,59.0,56.0,-100.00,North,5,6.0,7.0,90,0.00,,,-99.99,,2013-06-14 09:43:00,
2013-06-14 05:53:00,59.0,56.0,-100.00,North,5,4.0,6.0,90,0.00,,,-99.99,,2013-06-14 09:53:00,
2013-06-14 06:01:00,59.0,56.0,-100.00,North,5,4.0,6.0,90,0.00,,,-99.99,,2013-06-14 10:01:00,
2013-06-14 06:12:00,59.0,56.0,-100.00,North,5,5.0,6.0,90,0.00,,,-99.99,,2013-06-14 10:12:00,
2013-06-14 06:22:00,59.0,56.0,-100.00,North,5,4.0,9.0,89,0.00,,,-99.99,,2013-06-14 10:22:00,
2013-06-14 06:34:00,59.0,56.0,-100.00,North,5,6.0,7.0,89,0.00,,,-99.99,,2013-06-14 10:34:00,
2013-06-14 06:43:00,59.0,56.0,-100.00,North,5,4.0,9.0,89,0.00,,,-99.99,,2013-06-14 10:43:00,
2013-06-14 06:52:00,59.0,56.0,-100.00,North,5,5.0,6.0,89,0.00,,,-99.99,,2013-06-14 10:52:00,
2013-06-14 07:02:00,59.0,56.0,-100.00,North,5,5.0,6.0,89,0.00,,,-99.99,,2013-06-14 11:02:00,
2013-06-14 07:11:00,60.0,56.0,-100.00,North,5,4.0,7.0,88,0.00,,,-99.99,,2013-06-14 11:11:00,
2013-06-14 07:23:00,60.0,56.0,-100.00,North,5,4.0,7.0,87,0.00,,,-99.99,,2013-06-14 11:23:00,
2013-06-14 07:32:00,60.0,56.0,-100.00,North,5,6.0,9.0,86,0.00,,,-99.99,,2013-06-14 11:32:00,
2013-06-14 07:43:00,61.0,56.0,-100.00,North,5,6.0,9.0,84,0.00,,,-99.99,,2013-06-14 11:43:00,
2013-06-14 07:52:00,62.0,56.0,-100.00,North,5,6.0,9.0,82,0.00,,,-99.99,,2013-06-14 11:52:00,
2013-06-14 08:02:00,62.0,56.0,-100.00,North,5,6.0,9.0,80,0.00,,,-99.99,,2013-06-14 12:02:00,
2013-06-14 08:12:00,62.0,56.0,-100.00,North,5,6.0,9.0,80,0.00,,,-99.99,,2013-06-14 12:12:00,
2013-06-14 08:22:00,63.0,57.0,-100.00,North,5,6.0,8.0,80,0.00,,,-99.99,,2013-06-14 12:22:00,
2013-06-14 08:33:00,63.0,57.0,-100.00,North,5,7.0,10.0,80,0.00,,,-99.99,,2013-06-14 12:33:00,
2013-06-14 08:43:00,64.0,56.0,-100.00,North,5,6.0,12.0,76,0.00,,,-99.99,,2013-06-14 12:43:00,
2013-06-14 08:52:00,64.0,56.0,-100.00,North,5,8.0,12.0,75,0.00,,,-99.99,,2013-06-14 12:52:00,
2013-06-14 09:02:00,64.0,56.0,-100.00,North,5,8.0,12.0,75,0.00,,,-99.99,,2013-06-14 13:02:00,
2013-06-14 09:11:00,64.0,57.0,-100.00,North,5,9.0,11.0,76,0.00,,,-99.99,,2013-06-14 13:11:00,
2013-06-14 09:22:00,65.0,57.0,-100.00,North,5,7.0,11.0,73,0.00,,,-99.99,,2013-06-14 13:22:00,
2013-06-14 09:33:00,65.0,57.0,-100.00,North,5,7.0,11.0,73,0.00,,,-99.99,,2013-06-14 13:33:00,
2013-06-14 09:43:00,66.0,57.0,-100.00,North,5,6.0,10.0,73,0.00,,,-99.99,,2013-06-14 13:43:00,
2013-06-14 09:53:00,66.0,57.0,-100.00,North,5,6.0,14.0,72,0.00,,,-99.99,,2013-06-14 13:53:00,
2013-06-14 10:02:00,67.0,57.0,-100.00,North,5,7.0,12.0,70,0.00,,,-99.99,,2013-06-14 14:02:00,
2013-06-14 10:11:00,67.0,57.0,-100.00,North,5,9.0,12.0,69,0.00,,,-99.99,,2013-06-14 14:11:00,
2013-06-14 10:22:00,66.0,56.0,-100.00,North,5,9.0,13.0,70,0.00,,,-99.99,,2013-06-14 14:22:00,
2013-06-14 10:34:00,67.0,57.0,-100.00,North,5,10.0,14.0,70,0.00,,,-99.99,,2013-06-14 14:34:00,
2013-06-14 10:43:00,69.0,57.0,-100.00,North,5,8.0,12.0,64,0.00,,,-99.99,,2013-06-14 14:43:00,
2013-06-14 10:52:00,68.0,59.0,-100.00,North,5,7.0,12.0,71,0.00,,,-99.99,,2013-06-14 14:52:00,
2013-06-14 11:02:00,69.0,59.0,-100.00,North,5,7.0,11.0,68,0.00,,,-99.99,,2013-06-14 15:02:00,
2013-06-14 11:11:00,67.0,55.0,-100.00,North,5,9.0,12.0,65,0.00,,,-99.99,,2013-06-14 15:11:00,
2013-06-14 11:23:00,68.0,56.0,-100.00,North,5,7.0,12.0,66,0.00,,,-99.99,,2013-06-14 15:23:00,
2013-06-14 11:33:00,67.0,57.0,-100.00,North,5,6.0,15.0,68,0.00,,,-99.99,,2013-06-14 15:33:00,
2013-06-14 11:44:00,67.0,56.0,-100.00,North,5,9.0,12.0,68,0.00,,,-99.99,,2013-06-14 15:44:00,
2013-06-14 11:53:00,68.0,57.0,-100.00,North,5,7.0,12.0,67,0.00,,,-99.99,,2013-06-14 15:53:00,
2013-06-14 12:01:00,68.0,57.0,-100.00,North,5,7.0,12.0,67,0.00,,,-99.99,,2013-06-14 16:01:00,
2013-06-14 12:11:00,69.0,57.0,-100.00,North,5,7.0,14.0,65,0.00,,,-99.99,,2013-06-14 16:11:00,
2013-06-14 12:22:00,69.0,56.0,-100.00,North,5,7.0,12.0,64,0.00,,,-99.99,,2013-06-14 16:22:00,
2013-06-14 12:33:00,70.0,58.0,-100.00,North,5,6.0,12.0,63,0.00,,,-99.99,,2013-06-14 16:33:00,
2013-06-14 12:43:00,70.0,54.0,-100.00,North,5,7.0,19.0,57,0.00,,,-99.99,,2013-06-14 16:43:00,
2013-06-14 12:52:00,71.0,56.0,-100.00,North,5,11.0,15.0,57,0.00,,,-99.99,,2013-06-14 16:52:00,
2013-06-14 13:02:00,72.0,56.0,-100.00,North,5,6.0,12.0,57,0.00,,,-99.99,,2013-06-14 17:02:00,
2013-06-14 13:12:00,72.0,56.0,-100.00,North,5,6.0,12.0,57,0.00,,,-99.99,,2013-06-14 17:12:00,
2013-06-14 13:22:00,70.0,55.0,-100.00,North,5,9.0,15.0,58,0.00,,,-99.99,,2013-06-14 17:22:00,
2013-06-14 13:34:00,71.0,54.0,-100.00,North,5,7.0,15.0,54,0.00,,,-99.99,,2013-06-14 17:34:00,
2013-06-14 13:43:00,71.0,55.0,-100.00,North,5,8.0,12.0,56,0.00,,,-99.99,,2013-06-14 17:43:00,
2013-06-14 13:53:00,73.0,54.0,-100.00,North,5,6.0,11.0,51,0.00,,,-99.99,,2013-06-14 17:53:00,
2013-06-14 14:02:00,73.0,54.0,-100.00,North,5,6.0,11.0,51,0.00,,,-99.99,,2013-06-14 18:02:00,
2013-06-14 14:11:00,73.0,55.0,-100.00,North,5,7.0,9.0,54,0.00,,,-99.99,,2013-06-14 18:11:00,
2013-06-14 14:22:00,73.0,54.0,-100.00,North,5,6.0,10.0,52,0.00,,,-99.99,,2013-06-14 18:22:00,
2013-06-14 14:32:00,73.0,54.0,-100.00,North,5,7.0,12.0,51,0.00,,,-99.99,,2013-06-14 18:32:00,
2013-06-14 14:43:00,74.0,57.0,-100.00,North,5,3.0,11.0,55,0.00,,,-99.99,,2013-06-14 18:43:00,
2013-06-14 14:52:00,73.0,54.0,-100.00,North,5,7.0,11.0,51,0.00,,,-99.99,,2013-06-14 18:52:00,
2013-06-14 15:01:00,73.0,54.0,-100.00,North,5,7.0,11.0,51,0.00,,,-99.99,,2013-06-14 19:01:00,
2013-06-14 15:11:00,73.0,54.0,-100.00,North,5,9.0,13.0,51,0.00,,,-99.99,,2013-06-14 19:11:00,
2013-06-14 15:22:00,73.0,54.0,-100.00,North,5,6.0,14.0,51,0.00,,,-99.99,,2013-06-14 19:22:00,
2013-06-14 15:32:00,74.0,54.0,-100.00,North,5,7.0,9.0,50,0.00,,,-99.99,,2013-06-14 19:32:00,
2013-06-14 15:43:00,72.0,53.0,-100.00,North,5,6.0,11.0,50,0.00,,,-99.99,,2013-06-14 19:43:00,
2013-06-14 15:53:00,74.0,54.0,-100.00,North,5,6.0,11.0,49,0.00,,,-99.99,,2013-06-14 19:53:00,
2013-06-14 16:02:00,74.0,54.0,-100.00,North,5,6.0,11.0,49,0.00,,,-99.99,,2013-06-14 20:02:00,
2013-06-14 16:11:00,74.0,54.0,-100.00,North,5,7.0,12.0,48,0.00,,,-99.99,,2013-06-14 20:11:00,
2013-06-14 16:22:00,74.0,55.0,-100.00,North,5,4.0,11.0,50,0.00,,,-99.99,,2013-06-14 20:22:00,
2013-06-14 16:33:00,77.0,54.0,-100.00,North,5,4.0,11.0,45,0.00,,,-99.99,,2013-06-14 20:33:00,
2013-06-14 16:43:00,74.0,53.0,-100.00,North,5,4.0,11.0,49,0.00,,,-99.99,,2013-06-14 20:43:00,
2013-06-14 16:53:00,75.0,54.0,-100.00,North,5,6.0,10.0,47,0.00,,,-99.99,,2013-06-14 20:53:00,
2013-06-14 17:02:00,75.0,54.0,-100.00,North,5,6.0,10.0,47,0.00,,,-99.99,,2013-06-14 21:02:00,
2013-06-14 17:12:00,76.0,53.0,-100.00,North,5,7.0,10.0,44,0.00,,,-99.99,,2013-06-14 21:12:00,
2013-06-14 17:22:00,76.0,53.0,-100.00,North,5,6.0,11.0,45,0.00,,,-99.99,,2013-06-14 21:22:00,
2013-06-14 17:34:00,78.0,55.0,-100.00,North,5,4.0,9.0,46,0.00,,,-99.99,,2013-06-14 21:34:00,
2013-06-14 17:42:00,78.0,54.0,-100.00,North,5,6.0,10.0,43,0.00,,,-99.99,,2013-06-14 21:42:00,
2013-06-14 17:52:00,79.0,55.0,-100.00,North,5,5.0,10.0,43,0.00,,,-99.99,,2013-06-14 21:52:00,
2013-06-14 18:02:00,78.0,52.0,-100.00,North,5,6.0,10.0,40,0.00,,,-99.99,,2013-06-14 22:02:00,
2013-06-14 18:12:00,74.0,54.0,-100.00,North,5,3.0,7.0,48,0.00,,,-99.99,,2013-06-14 22:12:00,
2013-06-14 18:22:00,75.0,53.0,-100.00,North,5,7.0,11.0,46,0.00,,,-99.99,,2013-06-14 22:22:00,
2013-06-14 18:33:00,76.0,52.0,-100.00,North,5,6.0,11.0,43,0.00,,,-99.99,,2013-06-14 22:33:00,
2013-06-14 18:43:00,74.0,54.0,-100.00,North,5,6.0,9.0,48,0.00,,,-99.99,,2013-06-14 22:43:00,
2013-06-14 18:53:00,74.0,54.0,-100.00,North,5,4.0,7.0,49,0.00,,,-99.99,,2013-06-14 22:53:00,
2013-06-14 19:02:00,76.0,55.0,-100.00,North,5,4.0,7.0,47,0.00,,,-99.99,,2013-06-14 23:02:00,
2013-06-14 19:11:00,75.0,53.0,-100.00,North,5,7.0,9.0,46,0.00,,,-99.99,,2013-06-14 23:11:00,
2013-06-14 19:22:00,74.0,53.0,-100.00,North,5,5.0,9.0,47,0.00,,,-99.99,,2013-06-14 23:22:00,
2013-06-14 19:33:00,74.0,53.0,-100.00,North,5,5.0,9.0,47,0.00,,,-99.99,,2013-06-14 23:33:00,
2013-06-14 19:43:00,74.0,53.0,-100.00,North,5,3.0,5.0,47,0.00,,,-99.99,,2013-06-14 23:43:00,
2013-06-14 19:52:00,75.0,54.0,-100.00,North,5,1.0,5.0,47,0.00,,,-99.99,,2013-06-14 23:52:00,
2013-06-14 20:01:00,74.0,53.0,-100.00,North,5,4.0,6.0,46,0.00,,,-99.99,,2013-06-15 00:01:00,
2013-06-14 20:11:00,73.0,54.0,-100.00,North,5,4.0,7.0,50,0.00,,,-99.99,,2013-06-15 00:11:00,
2013-06-14 20:23:00,73.0,55.0,-100.00,North,5,2.0,6.0,52,0.00,,,-99.99,,2013-06-15 00:23:00,
2013-06-14 20:34:00,73.0,55.0,-100.00,North,5,2.0,6.0,51,0.00,,,-99.99,,2013-06-15 00:34:00,
2013-06-14 20:43:00,74.0,55.0,-100.00,North,5,2.0,5.0,52,0.00,,,-99.99,,2013-06-15 00:43:00,
2013-06-14 20:53:00,73.0,53.0,-100.00,North,5,1.0,3.0,49,0.00,,,-99.99,,2013-06-15 00:53:00,
2013-06-14 21:01:00,72.0,55.0,-100.00,North,5,3.0,4.0,55,0.00,,,-99.99,,2013-06-15 01:01:00,
2013-06-14 21:11:00,71.0,55.0,-100.00,North,5,1.0,3.0,56,0.00,,,-99.99,,2013-06-15 01:11:00,
2013-06-14 21:22:00,70.0,55.0,-100.00,North,5,1.0,3.0,60,0.00,,,-99.99,,2013-06-15 01:22:00,
2013-06-14 21:33:00,69.0,55.0,-100.00,North,5,1.0,2.0,59,0.00,,,-99.99,,2013-06-15 01:33:00,
2013-06-14 21:43:00,69.0,54.0,-100.00,North,5,1.0,3.0,60,0.00,,,-99.99,,2013-06-15 01:43:00,
2013-06-14 21:54:00,66.0,58.0,-100.00,North,5,1.0,2.0,76,0.00,,,-99.99,,2013-06-15 01:54:00,
2013-06-14 22:02:00,65.0,57.0,-100.00,North,5,1.0,1.0,73,0.00,,,-99.99,,2013-06-15 02:02:00,
2013-06-14 22:11:00,65.0,56.0,-100.00,North,5,0.0,1.0,71,0.00,,,-99.99,,2013-06-15 02:11:00,
2013-06-14 22:23:00,65.0,56.0,-100.00,North,5,0.0,0.0,72,0.00,,,-99.99,,2013-06-15 02:23:00,
2013-06-14 22:33:00,65.0,56.0,-100.00,North,5,0.0,0.0,72,0.00,,,-99.99,,2013-06-15 02:33:00,
2013-06-14 22:43:00,64.0,55.0,-100.00,North,5,1.0,3.0,71,0.00,,,-99.99,,2013-06-15 02:43:00,
2013-06-14 22:53:00,65.0,55.0,-100.00,North,5,2.0,3.0,71,0.00,,,-99.99,,2013-06-15 02:53:00,
2013-06-14 23:01:00,64.0,55.0,-100.00,North,5,1.0,3.0,72,0.00,,,-99.99,,2013-06-15 03:01:00,
2013-06-14 23:11:00,64.0,55.0,-100.00,North,5,1.0,3.0,72,0.00,,,-99.99,,2013-06-15 03:11:00,
2013-06-14 23:24:00,65.0,55.0,-100.00,North,5,1.0,3.0,71,0.00,,,-99.99,,2013-06-15 03:24:00,
2013-06-14 23:32:00,64.0,55.0,-100.00,North,5,2.0,3.0,72,0.00,,,-99.99,,2013-06-15 03:32:00,
2013-06-14 23:44:00,62.0,55.0,-100.00,North,5,0.0,0.0,79,0.00,,,-99.99,,2013-06-15 03:44:00,
2013-06-14 23:52:00,62.0,55.0,-100.00,North,5,0.0,1.0,79,0.00,,,-99.99,,2013-06-15 03:52:00,